Weather History for KSHR - April, 2014

Change the Weather History Date:

Friday, April 11, 2014

  Actual Average Record
Temperature  
Mean Temperature 51 °F 42 °F  
Max Temperature 69 °F 56 °F 80 °F (1949)
Min Temperature 32 °F 29 °F 5 °F (1997)
Degree Days  
Heating Degree Days 14 23  
Month to date heating degree days 245 263  
Since 1 July heating degree days 6984 6722  
Cooling Degree Days 0 0  
Month to date cooling degree days 0 0  
Year to date cooling degree days 0 0  
Moisture  
Dew Point 31 °F    
Average Humidity 50    
Maximum Humidity 76    
Minimum Humidity 24    
Precipitation  
Precipitation 0.00 in 0.05 in 0.72 in (1991)
Month to date precipitation 0.11 0.46  
Year to date precipitation 3.65 2.54  
Sea Level Pressure  
Sea Level Pressure 29.80 in    
Wind  
Wind Speed 6 mph (NNW)    
Max Wind Speed 16 mph    
Max Gust Speed 19 mph    
Visibility 10 miles    
Events      
T = Trace of Precipitation, MM = Missing Value Source: NWS Daily Summary

Daily Weather History Graph

Daily Weather History Graph

Search for Another Location

Airport or City:

Trip Planner

Search our weather history database for the weather conditions in past years. The results will help you decide how hot, cold, wet, or windy it might be!

Date:

Astronomy

Apr. 11, 2014 Rise Set
Actual Time 6:30 AM MDT 7:48 PM MDT
Civil Twilight 6:00 AM MDT 8:18 PM MDT
Nautical Twilight 5:24 AM MDT 8:54 PM MDT
Astronomical Twilight 4:45 AM MDT 9:33 PM MDT
Moon 4:23 PM MDT (4/11) 4:35 AM MDT (4/11)
Length of Visible Light 14h 18m
Length of Day
13h 17m
Waxing Gibbous, 87% of the Moon is Illuminated
Apr 11
Waxing Gibbous
Apr 15
Full
Apr 22
Last Quarter
Apr 29
New
May 6
First Quarter

Hourly Weather History & Observations

Time (MDT) Temp. Windchill Dew Point Humidity Pressure Visibility Wind Dir Wind Speed Gust Speed Precip Events Conditions
12:53 AM 39.0 °F - 28.9 °F 67% 29.99 in 10.0 mi Calm Calm - N/A   Clear
1:53 AM 39.9 °F 36.7 °F 26.1 °F 58% 29.97 in 10.0 mi SSE 4.6 mph - N/A   Clear
2:53 AM 37.9 °F - 26.1 °F 62% 29.97 in 10.0 mi Calm Calm - N/A   Clear
3:53 AM 35.1 °F 29.3 °F 26.1 °F 70% 29.95 in 10.0 mi SSE 6.9 mph - N/A   Clear
4:53 AM 36.0 °F 32.1 °F 26.1 °F 67% 29.94 in 10.0 mi South 4.6 mph - N/A   Clear
5:53 AM 32.0 °F - 25.0 °F 75% 29.94 in 10.0 mi Calm Calm - N/A   Clear
6:53 AM 34.0 °F 31.0 °F 25.0 °F 70% 29.95 in 10.0 mi East 3.5 mph - N/A   Clear
7:53 AM 39.0 °F 35.7 °F 32.0 °F 76% 29.93 in 10.0 mi NW 4.6 mph - N/A   Clear
8:53 AM 43.0 °F 39.5 °F 33.1 °F 68% 29.90 in 10.0 mi North 5.8 mph - N/A   Clear
9:53 AM 51.1 °F - 33.1 °F 50% 29.85 in 10.0 mi Calm Calm - N/A   Clear
10:53 AM 57.0 °F - 36.0 °F 45% 29.82 in 10.0 mi NW 5.8 mph - N/A   Clear
11:53 AM 61.0 °F - 35.1 °F 38% 29.78 in 10.0 mi West 4.6 mph - N/A   Clear
12:53 PM 61.0 °F - 33.1 °F 35% 29.75 in 10.0 mi WNW 6.9 mph - N/A   Clear
1:53 PM 66.9 °F - 28.0 °F 23% 29.70 in 10.0 mi NE 5.8 mph - N/A   Clear
2:53 PM 68.0 °F - 30.9 °F 25% 29.68 in 10.0 mi NNW 12.7 mph 19.6 mph N/A   Clear
3:53 PM 69.1 °F - 32.0 °F 25% 29.66 in 10.0 mi North 12.7 mph - N/A   Clear
4:53 PM 68.0 °F - 32.0 °F 26% 29.65 in 10.0 mi North 12.7 mph - N/A   Clear
5:53 PM 66.9 °F - 32.0 °F 27% 29.68 in 10.0 mi North 9.2 mph - N/A   Partly Cloudy
6:53 PM 62.1 °F - 32.0 °F 32% 29.70 in 10.0 mi NNW 8.1 mph - N/A   Clear
7:53 PM 53.1 °F - 33.1 °F 47% 29.71 in 10.0 mi WNW 6.9 mph - N/A   Clear
8:53 PM 48.0 °F - 34.0 °F 58% 29.72 in 10.0 mi South 10.4 mph - N/A   Clear
9:53 PM 48.0 °F - 33.1 °F 56% 29.70 in 10.0 mi Calm Calm - N/A   Clear
10:53 PM 44.1 °F 39.0 °F 34.0 °F 68% 29.71 in 10.0 mi NNW 9.2 mph - N/A   Partly Cloudy
11:53 PM 45.0 °F - 32.0 °F 60% 29.72 in 10.0 mi Calm Calm - N/A   Clear